KAC511 OKKK-UTAA

Flight info

Callsign KAC511
Flight time 1h 54m
Altitude 39000
Route ALVAX B417 IMKEN W6 ISN G202 ALNER DCT ALMUD G663 TBS M318 RIKOP RIK29A
Aircraft A346/H-SDE2E3FGHIJ3J4J5M1RWXY/LB1D1

Departure

Time 2026-04-27 20:18
Airport Kuwait International Airport (OKKK)

Arrival

Time 2026-04-27 22:13
Airport Ashgabat International Airport (UTAA)
Time Latitude Longitude Altitude Speed Heading
2026-04-27 19:38 29.23811 47.97323 175 ft 0 kts 245°
2026-04-27 20:02 29.23817 47.97338 175 ft 4 kts 245°
2026-04-27 20:02 29.23830 47.97363 175 ft 4 kts 228°
2026-04-27 20:02 29.23844 47.97374 175 ft 3 kts 200°
2026-04-27 20:02 29.23865 47.97378 175 ft 4 kts 170°
2026-04-27 20:03 29.23889 47.97368 175 ft 4 kts 154°
2026-04-27 20:03 29.23909 47.97358 175 ft 0 kts 158°
2026-04-27 20:07 29.23908 47.97358 175 ft 1 kts 158°
2026-04-27 20:08 29.23893 47.97365 175 ft 4 kts 158°
2026-04-27 20:08 29.23858 47.97382 175 ft 7 kts 156°
2026-04-27 20:08 29.23802 47.97409 175 ft 10 kts 156°
2026-04-27 20:08 29.23731 47.97445 175 ft 12 kts 156°
2026-04-27 20:09 29.23650 47.97426 175 ft 14 kts 231°
2026-04-27 20:09 29.23634 47.97394 175 ft 0 kts 244°
2026-04-27 20:09 29.23633 47.97393 175 ft 0 kts 244°
2026-04-27 20:10 29.23631 47.97387 175 ft 2 kts 244°
2026-04-27 20:10 29.23620 47.97360 175 ft 5 kts 244°
2026-04-27 20:10 29.23600 47.97309 175 ft 9 kts 249°
2026-04-27 20:11 29.23572 47.97232 175 ft 12 kts 247°
2026-04-27 20:11 29.23532 47.97136 175 ft 15 kts 244°
2026-04-27 20:11 29.23496 47.97017 174 ft 18 kts 265°
2026-04-27 20:11 29.23504 47.96864 173 ft 21 kts 275°
2026-04-27 20:12 29.23520 47.96743 172 ft 13 kts 256°
2026-04-27 20:12 29.23484 47.96711 171 ft 11 kts 182°
2026-04-27 20:12 29.23377 47.96761 172 ft 14 kts 155°
2026-04-27 20:12 29.23281 47.96812 172 ft 17 kts 155°
2026-04-27 20:13 29.23165 47.96873 174 ft 19 kts 155°
2026-04-27 20:13 29.23039 47.96939 176 ft 21 kts 155°
2026-04-27 20:13 29.22899 47.97013 176 ft 23 kts 155°
2026-04-27 20:13 29.22744 47.97095 176 ft 26 kts 155°
2026-04-27 20:14 29.22576 47.97184 175 ft 27 kts 155°
2026-04-27 20:14 29.22399 47.97280 175 ft 29 kts 155°
2026-04-27 20:14 29.22212 47.97381 175 ft 30 kts 155°
2026-04-27 20:14 29.22018 47.97485 175 ft 31 kts 155°
2026-04-27 20:15 29.21817 47.97593 175 ft 32 kts 155°
2026-04-27 20:15 29.21685 47.97661 175 ft 19 kts 155°
2026-04-27 20:15 29.21557 47.97728 177 ft 21 kts 155°
2026-04-27 20:15 29.21440 47.97791 178 ft 13 kts 155°
2026-04-27 20:16 29.21363 47.97833 178 ft 5 kts 154°
2026-04-27 20:16 29.21328 47.97853 179 ft 7 kts 158°
2026-04-27 20:16 29.21273 47.97851 179 ft 8 kts 212°
2026-04-27 20:16 29.21239 47.97781 178 ft 12 kts 261°
2026-04-27 20:17 29.21273 47.97687 179 ft 14 kts 302°
2026-04-27 20:17 29.21330 47.97603 178 ft 15 kts 323°
2026-04-27 20:17 29.21436 47.97537 177 ft 24 kts 334°
2026-04-27 20:17 29.21637 47.97430 175 ft 73 kts 335°
2026-04-27 20:18 29.22624 47.96910 172 ft 156 kts 335°
2026-04-27 20:18 29.23735 47.96323 405 ft 185 kts 337°
2026-04-27 20:18 29.24942 47.95718 1031 ft 191 kts 335°
2026-04-27 20:18 29.26198 47.95094 1601 ft 202 kts 331°
2026-04-27 20:19 29.27482 47.94395 2182 ft 204 kts 328°
2026-04-27 20:19 29.28745 47.93657 2761 ft 203 kts 327°
2026-04-27 20:19 29.30025 47.92947 3305 ft 206 kts 330°
2026-04-27 20:19 29.31360 47.92252 3707 ft 218 kts 331°
2026-04-27 20:20 29.32773 47.91515 4047 ft 234 kts 331°
2026-04-27 20:20 29.34393 47.90948 4353 ft 258 kts 353°
2026-04-27 20:20 29.36229 47.91315 4629 ft 283 kts 25°
2026-04-27 20:20 29.37754 47.92804 5028 ft 297 kts 58°
2026-04-27 20:21 29.38762 47.94943 5787 ft 299 kts 65°
2026-04-27 20:21 29.39697 47.97083 6622 ft 301 kts 64°
2026-04-27 20:21 29.40659 47.99227 7436 ft 303 kts 63°
2026-04-27 20:21 29.41647 48.01375 8275 ft 307 kts 62°
2026-04-27 20:22 29.42663 48.03545 9138 ft 310 kts 62°
2026-04-27 20:22 29.43536 48.05812 9975 ft 312 kts 78°
2026-04-27 20:22 29.43630 48.08306 10589 ft 319 kts 103°
2026-04-27 20:22 29.42993 48.10802 11056 ft 333 kts 112°
2026-04-27 20:23 29.42190 48.13376 11493 ft 351 kts 112°
2026-04-27 20:23 29.41345 48.16103 11909 ft 370 kts 112°
2026-04-27 20:23 29.40486 48.18965 12296 ft 389 kts 111°
2026-04-27 20:23 29.39605 48.21970 12780 ft 404 kts 111°
2026-04-27 20:24 29.38707 48.25059 13566 ft 409 kts 111°
2026-04-27 20:24 29.37802 48.28176 14355 ft 413 kts 111°
2026-04-27 20:24 29.36896 48.31286 15122 ft 417 kts 111°
2026-04-27 20:24 29.35968 48.34461 15838 ft 423 kts 111°
2026-04-27 20:25 29.35086 48.37706 16561 ft 430 kts 105°
2026-04-27 20:25 29.34696 48.41143 17284 ft 439 kts 93°
2026-04-27 20:25 29.34931 48.44669 18035 ft 446 kts 81°
2026-04-27 20:25 29.35592 48.48168 18664 ft 452 kts 77°
2026-04-27 20:26 29.36340 48.51698 19263 ft 458 kts 77°
2026-04-27 20:26 29.37101 48.55269 19882 ft 463 kts 77°
2026-04-27 20:26 29.37857 48.58887 20494 ft 469 kts 77°
2026-04-27 20:26 29.38355 48.61315 20905 ft 473 kts 77°
2026-04-27 20:27 29.39105 48.65017 21518 ft 478 kts 77°
2026-04-27 20:27 29.39856 48.68767 22131 ft 483 kts 77°
2026-04-27 20:27 29.40611 48.72546 22736 ft 488 kts 77°
2026-04-27 20:27 29.41375 48.76374 23332 ft 494 kts 77°
2026-04-27 20:28 29.42149 48.80247 23826 ft 499 kts 77°
2026-04-27 20:28 29.42930 48.84150 24303 ft 504 kts 78°
2026-04-27 20:28 29.43716 48.88093 24785 ft 509 kts 78°
2026-04-27 20:28 29.44242 48.90740 25101 ft 513 kts 78°
2026-04-27 20:29 29.45488 48.96069 25687 ft 521 kts 67°
2026-04-27 20:29 29.47385 48.99606 26105 ft 522 kts 46°
2026-04-27 20:29 29.50095 49.02261 26574 ft 517 kts 27°
2026-04-27 20:29 29.53366 49.03872 27044 ft 509 kts
2026-04-27 20:30 29.56840 49.04424 27520 ft 503 kts 358°
2026-04-27 20:30 29.60347 49.04689 27978 ft 507 kts 357°
2026-04-27 20:30 29.63884 49.04966 28521 ft 511 kts 358°
2026-04-27 20:30 29.67426 49.05300 29261 ft 510 kts 358°
2026-04-27 20:31 29.70957 49.05674 29996 ft 508 kts 358°
2026-04-27 20:31 29.74478 49.06063 30598 ft 507 kts 358°
2026-04-27 20:31 29.77998 49.06453 31152 ft 507 kts 358°
2026-04-27 20:31 29.81511 49.06839 31717 ft 507 kts 357°
2026-04-27 20:32 29.85026 49.07223 32262 ft 507 kts 357°
2026-04-27 20:32 29.88542 49.07604 32846 ft 507 kts 356°
2026-04-27 20:32 29.92053 49.07986 33448 ft 506 kts 356°
2026-04-27 20:32 29.95553 49.08367 34014 ft 504 kts 356°
2026-04-27 20:33 29.98997 49.08741 34492 ft 503 kts 356°
2026-04-27 20:33 30.02480 49.09120 34923 ft 503 kts 355°
2026-04-27 20:33 30.05974 49.09499 35349 ft 503 kts 355°
2026-04-27 20:33 30.09464 49.09878 35773 ft 503 kts 355°
2026-04-27 20:34 30.12955 49.10256 36114 ft 505 kts 355°
2026-04-27 20:34 30.16456 49.10638 36430 ft 506 kts 355°
2026-04-27 20:34 30.19960 49.11021 36764 ft 507 kts 355°
2026-04-27 20:34 30.23476 49.11407 37107 ft 507 kts 355°
2026-04-27 20:35 30.26990 49.11793 37411 ft 508 kts 355°
2026-04-27 20:35 30.30522 49.12180 37682 ft 510 kts 354°
2026-04-27 20:35 30.34064 49.12567 37959 ft 512 kts 354°
2026-04-27 20:35 30.37618 49.12957 38192 ft 514 kts 354°
2026-04-27 20:36 30.41195 49.13351 38435 ft 516 kts 354°
2026-04-27 20:36 30.44774 49.13746 38658 ft 517 kts 354°
2026-04-27 20:36 30.48361 49.14140 38845 ft 519 kts 354°
2026-04-27 20:36 30.51964 49.14628 38888 ft 524 kts 358°
2026-04-27 20:37 30.59181 49.16330 38899 ft 535 kts
2026-04-27 20:37 30.66338 49.18914 38891 ft 540 kts
2026-04-27 20:38 30.73424 49.21663 38859 ft 540 kts
2026-04-27 20:38 30.80563 49.24416 38856 ft 539 kts
2026-04-27 20:39 30.87695 49.27149 38824 ft 538 kts
2026-04-27 20:39 30.94812 49.29874 38815 ft 538 kts
2026-04-27 20:40 31.01917 49.32598 38812 ft 538 kts
2026-04-27 20:40 31.09021 49.35323 38846 ft 537 kts
2026-04-27 20:41 31.16129 49.38057 38837 ft 537 kts
2026-04-27 20:41 31.23225 49.40792 38837 ft 537 kts
2026-04-27 20:42 31.30331 49.43532 38866 ft 538 kts
2026-04-27 20:42 31.37394 49.46260 38858 ft 538 kts
2026-04-27 20:43 31.44508 49.49016 38854 ft 538 kts
2026-04-27 20:43 31.51623 49.51777 38867 ft 538 kts
2026-04-27 20:44 31.58730 49.54538 38880 ft 538 kts
2026-04-27 20:44 31.65804 49.57482 38883 ft 546 kts 17°
2026-04-27 20:45 31.72365 49.62247 38899 ft 564 kts 34°
2026-04-27 20:45 31.77730 49.69097 38904 ft 576 kts 53°
2026-04-27 20:46 31.81688 49.77317 38931 ft 578 kts 62°
2026-04-27 20:46 31.85378 49.85665 38946 ft 577 kts 60°
2026-04-27 20:47 31.89223 49.93960 38964 ft 577 kts 59°
2026-04-27 20:47 31.93087 50.02243 38989 ft 577 kts 59°
2026-04-27 20:48 31.96940 50.10548 39013 ft 577 kts 60°
2026-04-27 20:48 32.00768 50.18856 39000 ft 576 kts 59°
2026-04-27 20:49 32.04611 50.27185 39048 ft 577 kts 60°
2026-04-27 20:49 32.08440 50.35519 39046 ft 577 kts 60°
2026-04-27 20:50 32.12260 50.43861 39052 ft 577 kts 60°
2026-04-27 20:50 32.16088 50.52216 39042 ft 578 kts 60°
2026-04-27 20:51 32.19910 50.60584 39038 ft 579 kts 60°
2026-04-27 20:51 32.23697 50.68912 39115 ft 579 kts 60°
2026-04-27 20:52 32.27511 50.77309 39140 ft 580 kts 60°
2026-04-27 20:52 32.31335 50.85732 39139 ft 580 kts 60°
2026-04-27 20:53 32.35142 50.94141 39001 ft 579 kts 60°
2026-04-27 20:53 32.38944 51.02565 38996 ft 579 kts 60°
2026-04-27 20:54 32.44636 51.15208 38973 ft 579 kts 60°
2026-04-27 20:55 32.48424 51.23649 38962 ft 580 kts 60°
2026-04-27 20:55 32.52201 51.32095 38972 ft 580 kts 60°
2026-04-27 20:56 32.55977 51.40549 38947 ft 578 kts 60°
2026-04-27 20:56 32.59709 51.48920 38945 ft 578 kts 60°
2026-04-27 20:57 32.63463 51.57368 38940 ft 578 kts 60°
2026-04-27 20:57 32.67205 51.65817 38934 ft 577 kts 60°
2026-04-27 20:58 32.70875 51.74307 38929 ft 578 kts 64°
2026-04-27 20:58 32.73707 51.83275 38921 ft 580 kts 74°
2026-04-27 20:59 32.75325 51.92653 38931 ft 578 kts 85°
2026-04-27 20:59 32.75935 52.02156 38934 ft 576 kts 89°
2026-04-27 21:00 32.76387 52.11672 38928 ft 575 kts 89°
2026-04-27 21:00 32.76891 52.21162 38950 ft 574 kts 88°
2026-04-27 21:01 32.77418 52.30648 38960 ft 574 kts 88°
2026-04-27 21:01 32.77941 52.40115 38943 ft 573 kts 88°
2026-04-27 21:02 32.78453 52.49590 38948 ft 574 kts 88°
2026-04-27 21:02 32.78951 52.59010 38958 ft 573 kts 88°
2026-04-27 21:03 32.79444 52.68482 38957 ft 573 kts 88°
2026-04-27 21:03 32.79928 52.77955 38960 ft 573 kts 88°
2026-04-27 21:04 32.80404 52.87439 38957 ft 573 kts 88°
2026-04-27 21:04 32.80875 52.96910 38948 ft 573 kts 89°
2026-04-27 21:05 32.81336 53.06382 38931 ft 573 kts 88°
2026-04-27 21:05 32.81795 53.15842 38918 ft 573 kts 88°
2026-04-27 21:06 32.82249 53.25314 38903 ft 573 kts 88°
2026-04-27 21:06 32.82691 53.34792 38914 ft 572 kts 88°
2026-04-27 21:07 32.83126 53.44256 38893 ft 572 kts 88°
2026-04-27 21:07 32.83552 53.53660 38882 ft 572 kts 88°
2026-04-27 21:08 32.83973 53.63137 38889 ft 572 kts 88°
2026-04-27 21:08 32.84387 53.72608 38877 ft 572 kts 88°
2026-04-27 21:09 32.84791 53.82078 38853 ft 572 kts 88°
2026-04-27 21:09 32.85192 53.91550 38874 ft 573 kts 88°
2026-04-27 21:10 32.85691 54.00973 38873 ft 573 kts 84°
2026-04-27 21:10 32.87000 54.10315 38884 ft 572 kts 76°
2026-04-27 21:11 32.88876 54.19533 38880 ft 572 kts 75°
2026-04-27 21:11 32.90783 54.28752 38885 ft 571 kts 75°
2026-04-27 21:12 32.92643 54.37929 38878 ft 570 kts 76°
2026-04-27 21:12 32.94474 54.47079 38876 ft 570 kts 76°
2026-04-27 21:13 32.96303 54.56282 38868 ft 570 kts 76°
2026-04-27 21:13 32.97820 54.63938 38875 ft 569 kts 76°
2026-04-27 21:14 32.99635 54.73131 38880 ft 569 kts 76°
2026-04-27 21:14 33.01440 54.82320 38889 ft 568 kts 76°
2026-04-27 21:15 33.03241 54.91512 38881 ft 568 kts 76°
2026-04-27 21:15 33.05036 55.00719 38893 ft 568 kts 76°
2026-04-27 21:16 33.06817 55.09895 38883 ft 567 kts 76°
2026-04-27 21:16 33.08585 55.19037 38891 ft 567 kts 76°
2026-04-27 21:17 33.10356 55.28230 38873 ft 568 kts 76°
2026-04-27 21:17 33.12117 55.37423 38882 ft 567 kts 76°
2026-04-27 21:18 33.13875 55.46627 38885 ft 567 kts 76°
2026-04-27 21:18 33.15612 55.55763 38887 ft 567 kts 76°
2026-04-27 21:19 33.17352 55.64957 38889 ft 566 kts 76°
2026-04-27 21:19 33.19085 55.74149 38884 ft 566 kts 76°
2026-04-27 21:20 33.21655 55.87868 38889 ft 566 kts 76°
2026-04-27 21:20 33.23367 55.97060 38892 ft 566 kts 76°
2026-04-27 21:21 33.25076 56.06267 38894 ft 566 kts 76°
2026-04-27 21:21 33.26775 56.15469 38898 ft 566 kts 76°
2026-04-27 21:22 33.28619 56.24619 38906 ft 564 kts 71°
2026-04-27 21:22 33.31481 56.33312 38907 ft 558 kts 59°
2026-04-27 21:23 33.35456 56.41219 38904 ft 551 kts 49°
2026-04-27 21:23 33.40194 56.48386 38899 ft 548 kts 45°
2026-04-27 21:24 33.44998 56.55433 38891 ft 548 kts 45°
2026-04-27 21:24 33.49764 56.62592 38894 ft 547 kts 46°
2026-04-27 21:25 33.54479 56.69745 38887 ft 546 kts 46°
2026-04-27 21:25 33.59181 56.76887 38886 ft 544 kts 46°
2026-04-27 21:26 33.64155 56.83552 38887 ft 534 kts 35°
2026-04-27 21:26 33.70122 56.88602 38890 ft 517 kts 20°
2026-04-27 21:27 33.76679 56.91765 38894 ft 500 kts
2026-04-27 21:27 33.83426 56.93595 38898 ft 496 kts
2026-04-27 21:28 33.90192 56.95307 38908 ft 497 kts
2026-04-27 21:28 33.96959 56.97073 38905 ft 498 kts
2026-04-27 21:29 34.03719 56.98863 38902 ft 498 kts
2026-04-27 21:29 34.10486 57.00664 38903 ft 498 kts
2026-04-27 21:30 34.17213 57.02457 38902 ft 498 kts
2026-04-27 21:30 34.23984 57.04265 38898 ft 498 kts
2026-04-27 21:31 34.30747 57.06074 38897 ft 498 kts
2026-04-27 21:31 34.37505 57.07878 38901 ft 498 kts
2026-04-27 21:32 34.44279 57.09693 38893 ft 498 kts
2026-04-27 21:32 34.51045 57.11506 38893 ft 497 kts
2026-04-27 21:33 34.57799 57.13317 38904 ft 497 kts
2026-04-27 21:33 34.64503 57.15122 38890 ft 496 kts
2026-04-27 21:34 34.71254 57.16946 38897 ft 496 kts
2026-04-27 21:34 34.78002 57.18769 38895 ft 496 kts
2026-04-27 21:35 34.84743 57.20588 38898 ft 495 kts
2026-04-27 21:35 34.91471 57.22415 38897 ft 495 kts
2026-04-27 21:36 34.98197 57.24243 38895 ft 495 kts
2026-04-27 21:36 35.04880 57.26060 38905 ft 495 kts
2026-04-27 21:37 35.11601 57.27893 38903 ft 495 kts
2026-04-27 21:37 35.18317 57.29730 38910 ft 495 kts
2026-04-27 21:38 35.25041 57.31573 38904 ft 495 kts
2026-04-27 21:38 35.31756 57.33410 38923 ft 495 kts
2026-04-27 21:39 35.38473 57.35258 38926 ft 495 kts
2026-04-27 21:39 35.45195 57.37110 38929 ft 495 kts
2026-04-27 21:40 35.51920 57.38962 38945 ft 495 kts
2026-04-27 21:40 35.58607 57.40809 38926 ft 496 kts
2026-04-27 21:41 35.65331 57.42671 38921 ft 496 kts
2026-04-27 21:41 35.72063 57.44537 38932 ft 496 kts
2026-04-27 21:42 35.78806 57.46409 38930 ft 497 kts
2026-04-27 21:42 35.85550 57.48286 38915 ft 497 kts
2026-04-27 21:43 35.92291 57.50164 38917 ft 497 kts
2026-04-27 21:43 35.99043 57.52048 38932 ft 498 kts
2026-04-27 21:44 36.05809 57.53942 38920 ft 499 kts
2026-04-27 21:44 36.12517 57.55825 38695 ft 495 kts
2026-04-27 21:45 36.15878 57.56830 37923 ft 499 kts
2026-04-27 21:45 36.19234 57.58063 37040 ft 506 kts 13°
2026-04-27 21:45 36.22573 57.59482 36221 ft 508 kts 15°
2026-04-27 21:45 36.25905 57.60955 35453 ft 509 kts 15°
2026-04-27 21:46 36.29238 57.62444 34781 ft 508 kts 16°
2026-04-27 21:46 36.32554 57.63926 34167 ft 505 kts 16°
2026-04-27 21:46 36.35853 57.65398 33509 ft 503 kts 16°
2026-04-27 21:46 36.39143 57.66868 32859 ft 500 kts 16°
2026-04-27 21:47 36.42406 57.68319 32241 ft 496 kts 16°
2026-04-27 21:47 36.45651 57.69760 31649 ft 493 kts 16°
2026-04-27 21:47 36.48872 57.71189 31063 ft 490 kts 16°
2026-04-27 21:47 36.52087 57.72619 30460 ft 488 kts 16°
2026-04-27 21:48 36.55235 57.74020 29849 ft 486 kts 16°
2026-04-27 21:48 36.58426 57.75441 29185 ft 490 kts 17°
2026-04-27 21:48 36.61648 57.76877 28498 ft 491 kts 17°
2026-04-27 21:48 36.64863 57.78312 27802 ft 490 kts 17°
2026-04-27 21:49 36.68065 57.79739 27208 ft 487 kts 17°
2026-04-27 21:49 36.71238 57.81156 26701 ft 482 kts 17°
2026-04-27 21:49 36.74386 57.82563 26172 ft 477 kts 17°
2026-04-27 21:49 36.77497 57.83954 25697 ft 473 kts 17°
2026-04-27 21:50 36.80578 57.85334 25158 ft 469 kts 17°
2026-04-27 21:50 36.83645 57.86708 24651 ft 466 kts 17°
2026-04-27 21:50 36.86688 57.88072 24183 ft 462 kts 18°
2026-04-27 21:50 36.89701 57.89425 23726 ft 458 kts 18°
2026-04-27 21:51 36.92692 57.90770 23227 ft 454 kts 18°
2026-04-27 21:51 36.95653 57.92102 22737 ft 450 kts 18°
2026-04-27 21:51 36.98548 57.93407 22309 ft 444 kts 18°
2026-04-27 21:51 37.01457 57.94717 21928 ft 447 kts 18°
2026-04-27 21:52 37.04395 57.96041 21560 ft 446 kts 18°
2026-04-27 21:52 37.07312 57.97355 21170 ft 444 kts 18°
2026-04-27 21:52 37.10210 57.98664 20769 ft 440 kts 18°
2026-04-27 21:52 37.13076 57.99959 20360 ft 437 kts 18°
2026-04-27 21:53 37.15895 58.01229 19961 ft 434 kts 18°
2026-04-27 21:53 37.18725 58.02499 19528 ft 430 kts 18°
2026-04-27 21:53 37.21534 58.03759 19108 ft 426 kts 18°
2026-04-27 21:53 37.24313 58.05007 18708 ft 423 kts 18°
2026-04-27 21:54 37.27071 58.06247 18306 ft 419 kts 18°
2026-04-27 21:54 37.29812 58.07482 17851 ft 415 kts 18°
2026-04-27 21:54 37.32520 58.08703 17396 ft 412 kts 18°
2026-04-27 21:54 37.35204 58.09914 17014 ft 407 kts 18°
2026-04-27 21:55 37.37844 58.11107 16970 ft 399 kts 18°
2026-04-27 21:55 37.40438 58.12282 16970 ft 395 kts 18°
2026-04-27 21:55 37.43023 58.13452 16956 ft 384 kts 18°
2026-04-27 21:55 37.45483 58.14567 16953 ft 367 kts 18°
2026-04-27 21:56 37.47837 58.15634 16953 ft 351 kts 18°
2026-04-27 21:56 37.52242 58.17632 16952 ft 325 kts 17°
2026-04-27 21:56 37.54342 58.18583 16945 ft 325 kts 17°
2026-04-27 21:57 37.56472 58.19547 16955 ft 325 kts 17°
2026-04-27 21:57 37.58601 58.20513 16958 ft 325 kts 17°
2026-04-27 21:57 37.60724 58.21478 16959 ft 324 kts 18°
2026-04-27 21:57 37.62849 58.22444 16943 ft 324 kts 17°
2026-04-27 21:58 37.64973 58.23411 16946 ft 325 kts 17°
2026-04-27 21:58 37.67093 58.24431 16929 ft 327 kts 25°
2026-04-27 21:58 37.68937 58.26098 16868 ft 325 kts 39°
2026-04-27 21:58 37.70599 58.28023 16448 ft 324 kts 41°
2026-04-27 21:59 37.72247 58.29982 15977 ft 326 kts 41°
2026-04-27 21:59 37.73894 58.31935 15606 ft 323 kts 41°
2026-04-27 21:59 37.75534 58.33869 15243 ft 322 kts 41°
2026-04-27 21:59 37.77172 58.35789 14920 ft 319 kts 41°
2026-04-27 22:00 37.78776 58.37666 14547 ft 318 kts 41°
2026-04-27 22:00 37.80420 58.39586 14195 ft 316 kts 41°
2026-04-27 22:00 37.82013 58.41446 13865 ft 314 kts 41°
2026-04-27 22:00 37.83614 58.43315 13505 ft 312 kts 41°
2026-04-27 22:01 37.85195 58.45164 13130 ft 310 kts 41°
2026-04-27 22:01 37.86787 58.47025 12795 ft 306 kts 41°
2026-04-27 22:01 37.88347 58.48851 12392 ft 305 kts 41°
2026-04-27 22:01 37.89905 58.50679 11834 ft 304 kts 41°
2026-04-27 22:02 37.91452 58.52490 11339 ft 301 kts 41°
2026-04-27 22:02 37.92985 58.54285 10854 ft 298 kts 41°
2026-04-27 22:02 37.94501 58.56057 10360 ft 295 kts 41°
2026-04-27 22:02 37.95500 58.57222 10040 ft 293 kts 41°
2026-04-27 22:03 37.96996 58.58965 9562 ft 291 kts 41°
2026-04-27 22:03 37.98413 58.60779 9030 ft 290 kts 54°
2026-04-27 22:03 37.99185 58.63116 8588 ft 286 kts 82°
2026-04-27 22:03 37.99038 58.65570 8314 ft 276 kts 108°
2026-04-27 22:04 37.98290 58.67775 8049 ft 267 kts 117°
2026-04-27 22:04 37.97442 58.69794 7784 ft 259 kts 118°
2026-04-27 22:04 37.96578 58.71771 7503 ft 254 kts 119°
2026-04-27 22:04 37.95714 58.73735 7073 ft 257 kts 119°
2026-04-27 22:05 37.94805 58.75718 6575 ft 262 kts 128°
2026-04-27 22:05 37.93413 58.77196 6089 ft 264 kts 157°
2026-04-27 22:05 37.91622 58.77631 5622 ft 266 kts 186°
2026-04-27 22:05 37.89854 58.76980 5242 ft 266 kts 205°
2026-04-27 22:06 37.88193 58.75929 4882 ft 266 kts 208°
2026-04-27 22:06 37.86559 58.74810 4512 ft 267 kts 209°
2026-04-27 22:06 37.84985 58.73567 4136 ft 268 kts 223°
2026-04-27 22:06 37.83960 58.71619 3758 ft 269 kts 251°
2026-04-27 22:07 37.83797 58.69282 3484 ft 267 kts 280°
2026-04-27 22:07 37.84534 58.67173 3309 ft 261 kts 308°
2026-04-27 22:07 37.85726 58.65523 3143 ft 254 kts 311°
2026-04-27 22:07 37.86807 58.63796 2977 ft 248 kts 303°
2026-04-27 22:08 37.87733 58.61981 2792 ft 242 kts 300°
2026-04-27 22:08 37.88589 58.60143 2640 ft 236 kts 299°
2026-04-27 22:08 37.89375 58.58382 2537 ft 230 kts 298°
2026-04-27 22:08 37.90138 58.56645 2486 ft 217 kts 298°
2026-04-27 22:09 37.90845 58.55033 2509 ft 202 kts 298°
2026-04-27 22:09 37.91521 58.53495 2484 ft 199 kts 298°
2026-04-27 22:09 37.92197 58.51964 2470 ft 200 kts 298°
2026-04-27 22:09 37.92860 58.50461 2456 ft 186 kts 298°
2026-04-27 22:10 37.93465 58.49092 2331 ft 174 kts 298°
2026-04-27 22:10 37.94053 58.47763 2132 ft 172 kts 298°
2026-04-27 22:10 37.94627 58.46458 1976 ft 166 kts 298°
2026-04-27 22:10 37.95185 58.45193 1811 ft 163 kts 298°
2026-04-27 22:11 37.95745 58.43946 1657 ft 162 kts 299°
2026-04-27 22:11 37.96304 58.42704 1492 ft 162 kts 299°
2026-04-27 22:11 37.96848 58.41461 1298 ft 160 kts 298°
2026-04-27 22:11 37.97386 58.40241 1102 ft 157 kts 298°
2026-04-27 22:12 37.97918 58.39044 901 ft 154 kts 298°
2026-04-27 22:12 37.98442 58.37881 695 ft 149 kts 298°
2026-04-27 22:12 37.98885 58.36872 681 ft 101 kts 300°
2026-04-27 22:12 37.99124 58.36331 683 ft 56 kts 299°
2026-04-27 22:13 37.99281 58.35977 685 ft 34 kts 299°
2026-04-27 22:13 37.99355 58.35753 688 ft 26 kts 278°
2026-04-27 22:13 37.99357 58.35566 681 ft 13 kts 262°
2026-04-27 22:13 37.99310 58.35488 680 ft 8 kts 198°
2026-04-27 22:14 37.99253 58.35514 682 ft 11 kts 130°
2026-04-27 22:14 37.99208 58.35609 683 ft 14 kts 120°
2026-04-27 22:14 37.99152 58.35733 682 ft 18 kts 120°
2026-04-27 22:14 37.99088 58.35876 680 ft 19 kts 120°
2026-04-27 22:15 37.99018 58.36032 684 ft 22 kts 120°
2026-04-27 22:15 37.98957 58.36170 684 ft 17 kts 119°
2026-04-27 22:15 37.98894 58.36311 681 ft 19 kts 119°
2026-04-27 22:15 37.98834 58.36444 683 ft 17 kts 119°
2026-04-27 22:16 37.98783 58.36561 684 ft 13 kts 119°
2026-04-27 22:16 37.98726 58.36645 678 ft 13 kts 165°
2026-04-27 22:16 37.98634 58.36606 681 ft 12 kts 207°
2026-04-27 22:16 37.98584 58.36572 683 ft 9 kts 208°
2026-04-27 22:17 37.98537 58.36540 686 ft 4 kts 209°
2026-04-27 22:17 37.98506 58.36518 681 ft 6 kts 209°
2026-04-27 22:17 37.98468 58.36522 680 ft 8 kts 139°
2026-04-27 22:17 37.98440 58.36571 680 ft 5 kts 121°
2026-04-27 22:18 37.98427 58.36598 681 ft 3 kts 120°
2026-04-27 22:18 37.98422 58.36609 682 ft 0 kts 120°